Location: ???????
(55.9142°N, 37.8256°E)
Time: 18:42:27
(UTC+00:00)

Cosmos 2322 Rocket - Pass Details

Date: 02 August 2024
Orbit: 830 x 851 km, 71.0° (Epoch: 13 May)

Event Time Altitude Azimuth Distance (km) Brightness Sun altitude
Exits shadow 23:25:30 14° 179° (S) 2,164 3.8 -13.0°
Maximum altitude 23:29:59 44° 112° (ESE) 1,154 3.0 -12.7°
Drops below altitude 10° 23:35:22 10° 42° (NE) 2,487 6.0 -12.4°
Sets 23:37:55 0° 36° (NE) 3,428 7.4 -12.2°
